When you browse on this site, cookies collect data to enhance your experience and personalize the content and advertising you see.
Visit our Privacy Policy to learn more. By continuing to use the site, you agree to this use of cookies and data.
  • In Romania
  • List of Countries
  • For 7 days
  • Water Temperature
  • Satellite Maps
  • Weather Map
  • Weather Widgets
  • user-avatar
    Login

    Hourly Weather Muniaczkowice

    Today, 22 February, Friday

    Time Temperature Precipitation Wind Pressure Humidity
    00:00 +3°C° 0.4 mm 5 mps 741 mmHg 87%
    01:00 +4°C° 0 mm 4 mps 741 mmHg 87%
    02:00 +4°C° 0.6 mm 4 mps 741 mmHg 88%
    03:00 +3°C° 0.6 mm 5 mps 741 mmHg 89%
    04:00 +3°C° 0.6 mm 5 mps 741 mmHg 90%
    05:00 +2°C° 0.6 mm 6 mps 742 mmHg 87%
    06:00 -1°C° 0.6 mm 7 mps 742 mmHg 85%
    07:00 -3°C° 0 mm 7 mps 744 mmHg 80%
    08:00 -3°C° 0.1 mm 7 mps 745 mmHg 74%
    09:00 -4°C° 0.1 mm 7 mps 746 mmHg 69%
    10:00 -4°C° 0.1 mm 7 mps 747 mmHg 63%
    11:00 -4°C° 0 mm 7 mps 748 mmHg 57%
    12:00 -4°C° 0 mm 7 mps 749 mmHg 51%
    13:00 -4°C° 0 mm 6 mps 751 mmHg 44%
    14:00 -4°C° 0 mm 6 mps 751 mmHg 44%
    15:00 -5°C° 0 mm 6 mps 751 mmHg 44%
    16:00 -5°C° 0 mm 6 mps 752 mmHg 44%
    17:00 -6°C° 0 mm 6 mps 752 mmHg 45%
    18:00 -6°C° 0 mm 6 mps 753 mmHg 46%
    19:00 -7°C° 0 mm 5 mps 754 mmHg 46%
    20:00 -7°C° 0 mm 5 mps 754 mmHg 44%
    21:00 -7°C° 0 mm 5 mps 755 mmHg 42%
    22:00 -7°C° 0 mm 5 mps 755 mmHg 39%
    23:00 -7°C° 0 mm 5 mps 756 mmHg 40%

    Tomorrow, 23 February, Saturday

    Time Temperature Precipitation Wind Pressure Humidity
    00:00 -7°C° 0 mm 5 mps 756 mmHg 40%
    01:00 -7°C° 0 mm 4 mps 757 mmHg 40%
    02:00 -7°C° 0 mm 4 mps 757 mmHg 42%
    03:00 -7°C° 0 mm 4 mps 757 mmHg 43%
    04:00 -6°C° 0 mm 3 mps 757 mmHg 45%
    05:00 -6°C° 0 mm 3 mps 757 mmHg 47%
    06:00 -7°C° 0 mm 3 mps 757 mmHg 49%
    07:00 -7°C° 0 mm 3 mps 758 mmHg 51%
    08:00 -6°C° 0 mm 3 mps 758 mmHg 49%
    09:00 -5°C° 0 mm 3 mps 758 mmHg 47%
    10:00 -5°C° 0 mm 3 mps 758 mmHg 45%
    11:00 -4°C° 0 mm 3 mps 758 mmHg 42%
    12:00 -4°C° 0 mm 3 mps 758 mmHg 39%
    13:00 -2°C° 0 mm 2 mps 758 mmHg 36%
    14:00 -2°C° 0 mm 2 mps 758 mmHg 37%
    15:00 -2°C° 0 mm 2 mps 758 mmHg 37%
    16:00 -2°C° 0 mm 2 mps 757 mmHg 37%
    17:00 -3°C° 0 mm 2 mps 757 mmHg 40%
    18:00 -1°C° 0 mm 1 mps 757 mmHg 43%
    19:00 -2°C° 0 mm 1 mps 758 mmHg 46%
    20:00 -2°C° 0 mm 1 mps 757 mmHg 47%
    21:00 -2°C° 0 mm 1 mps 757 mmHg 48%
    22:00 -2°C° 0 mm 1 mps 757 mmHg 48%
    23:00 -2°C° 0 mm 1 mps 757 mmHg 48%

    Day after tomorrow, 24 February, Sunday

    Time Temperature Precipitation Wind Pressure Humidity
    00:00 -2°C° 0 mm 1 mps 757 mmHg 49%
    01:00 -2°C° 0 mm 1 mps 757 mmHg 49%
    02:00 -2°C° 0 mm 1 mps 756 mmHg 48%
    03:00 -2°C° 0 mm 1 mps 756 mmHg 47%
    04:00 -2°C° 0 mm 1 mps 756 mmHg 46%
    05:00 -2°C° 0 mm 1 mps 756 mmHg 44%
    06:00 -1°C° 0 mm 1 mps 755 mmHg 43%
    07:00 -1°C° 0 mm 1 mps 755 mmHg 41%
    08:00 0°C° 0 mm 1 mps 755 mmHg 37%
    09:00 -1°C° 0 mm 2 mps 755 mmHg 34%
    10:00 +1°C° 0 mm 2 mps 755 mmHg 30%
    11:00 +1°C° 0 mm 3 mps 755 mmHg 28%
    12:00 +2°C° 0 mm 3 mps 754 mmHg 26%
    13:00 +3°C° 0 mm 3 mps 754 mmHg 24%
    14:00 +3°C° 0 mm 3 mps 754 mmHg 28%
    15:00 +2°C° 0 mm 3 mps 753 mmHg 32%
    16:00 +2°C° 0 mm 3 mps 753 mmHg 36%
    17:00 +1°C° 0 mm 3 mps 753 mmHg 39%
    18:00 0°C° 0 mm 3 mps 753 mmHg 43%
    19:00 -1°C° 0 mm 3 mps 753 mmHg 46%
    20:00 -1°C° 0 mm 3 mps 754 mmHg 47%
    21:00 -1°C° 0 mm 3 mps 754 mmHg 48%
    22:00 -1°C° 0 mm 3 mps 754 mmHg 49%
    23:00 -1°C° 0 mm 3 mps 754 mmHg 51%

    25 February, Monday

    Time Temperature Precipitation Wind Pressure Humidity
    00:00 -1°C° 0 mm 3 mps 754 mmHg 53%
    01:00 -1°C° 0 mm 3 mps 754 mmHg 55%
    02:00 -1°C° 0 mm 3 mps 754 mmHg 57%
    03:00 -2°C° 0 mm 4 mps 753 mmHg 59%
    04:00 -2°C° 0 mm 4 mps 753 mmHg 61%
    05:00 -2°C° 0 mm 4 mps 753 mmHg 63%
    06:00 -2°C° 0 mm 4 mps 753 mmHg 66%
    07:00 -3°C° 0 mm 4 mps 753 mmHg 69%
    08:00 -1°C° 0 mm 4 mps 753 mmHg 67%
    09:00 0°C° 0 mm 4 mps 753 mmHg 66%
    10:00 +1°C° 0 mm 4 mps 754 mmHg 64%
    11:00 +3°C° 0 mm 4 mps 753 mmHg 65%
    12:00 +4°C° 0 mm 4 mps 753 mmHg 66%
    13:00 +5°C° 0 mm 4 mps 753 mmHg 67%
    14:00 +5°C° 0 mm 4 mps 753 mmHg 70%
    15:00 +5°C° 0 mm 3 mps 753 mmHg 72%
    16:00 +5°C° 0 mm 3 mps 753 mmHg 75%
    17:00 +4°C° 0 mm 3 mps 753 mmHg 80%
    18:00 +3°C° 0 mm 3 mps 753 mmHg 85%
    19:00 +1°C° 0 mm 3 mps 753 mmHg 90%
    20:00 +1°C° 0 mm 3 mps 753 mmHg 91%
    21:00 +1°C° 0 mm 3 mps 752 mmHg 91%
    22:00 0°C° 0 mm 3 mps 752 mmHg 92%
    23:00 0°C° 0 mm 3 mps 752 mmHg 92%

    26 February, Tuesday

    Time Temperature Precipitation Wind Pressure Humidity
    00:00 -1°C° 0 mm 4 mps 752 mmHg 92%
    01:00 -1°C° 0 mm 4 mps 752 mmHg 92%
    02:00 -1°C° 0 mm 4 mps 751 mmHg 93%
    03:00 -1°C° 0 mm 5 mps 751 mmHg 93%
    04:00 -1°C° 0 mm 5 mps 750 mmHg 93%
    05:00 -1°C° 0 mm 5 mps 750 mmHg 93%
    06:00 -1°C° 0 mm 5 mps 750 mmHg 92%
    07:00 -1°C° 0 mm 5 mps 749 mmHg 91%
    08:00 +1°C° 0 mm 6 mps 749 mmHg 82%
    09:00 +2°C° 0 mm 6 mps 749 mmHg 74%
    10:00 +3°C° 0 mm 6 mps 749 mmHg 65%
    11:00 +4°C° 0 mm 7 mps 748 mmHg 60%
    12:00 +5°C° 0 mm 7 mps 748 mmHg 56%
    13:00 +6°C° 0 mm 7 mps 748 mmHg 51%
    14:00 +6°C° 0 mm 7 mps 747 mmHg 52%
    15:00 +7°C° 0 mm 6 mps 747 mmHg 53%
    16:00 +7°C° 0 mm 6 mps 747 mmHg 54%
    17:00 +6°C° 0 mm 5 mps 747 mmHg 59%
    18:00 +6°C° 0 mm 5 mps 748 mmHg 63%
    19:00 +5°C° 0 mm 4 mps 748 mmHg 68%
    20:00 +4°C° 0 mm 4 mps 748 mmHg 73%
    21:00 +4°C° 0 mm 4 mps 748 mmHg 78%
    22:00 +3°C° 0 mm 4 mps 748 mmHg 82%
    23:00 +2°C° 0 mm 3 mps 748 mmHg 85%

    27 February, Wednesday

    Time Temperature Precipitation Wind Pressure Humidity
    00:00 +2°C° 0 mm 3 mps 748 mmHg 88%
    01:00 +1°C° 0 mm 3 mps 748 mmHg 91%
    02:00 +1°C° 0 mm 3 mps 748 mmHg 92%
    03:00 0°C° 0 mm 3 mps 748 mmHg 92%
    04:00 0°C° 0 mm 3 mps 748 mmHg 92%
    05:00 0°C° 0 mm 3 mps 748 mmHg 92%
    06:00 0°C° 0 mm 3 mps 748 mmHg 92%
    07:00 +1°C° 0 mm 2 mps 748 mmHg 92%
    08:00 +1°C° 0 mm 3 mps 748 mmHg 85%
    09:00 +3°C° 0 mm 3 mps 748 mmHg 78%
    10:00 +5°C° 0 mm 3 mps 748 mmHg 71%
    11:00 +6°C° 0 mm 4 mps 747 mmHg 67%
    12:00 +7°C° 0 mm 4 mps 747 mmHg 64%
    13:00 +8°C° 0 mm 4 mps 746 mmHg 60%
    14:00 +8°C° 0 mm 4 mps 745 mmHg 60%
    15:00 +8°C° 0 mm 5 mps 745 mmHg 61%
    16:00 +8°C° 0 mm 5 mps 744 mmHg 61%
    17:00 +7°C° 0 mm 5 mps 744 mmHg 64%
    18:00 +6°C° 0 mm 5 mps 743 mmHg 67%
    19:00 +5°C° 0 mm 4 mps 743 mmHg 70%
    20:00 +5°C° 0 mm 4 mps 743 mmHg 71%
    21:00 +5°C° 0 mm 5 mps 742 mmHg 71%
    22:00 +5°C° 0 mm 5 mps 742 mmHg 71%
    23:00 +5°C° 0 mm 5 mps 741 mmHg 71%
    Show more